Вернуться в каталог

STARLINK-33607

АктивенСвязьVLEO
NORAD 63323·PAYLOAD·🇺🇸 United States

Запущен Mar 18, 2025 с Cape Canaveral Space Force Station

Loading…

Ближайшие Пролёты (ближайшие 24 часа)

TLE

СвежийSource: CelesTrak SupGP

Эпоха: Sep 14, 2026, 14:57 UTC

1 63323C 25057S   26257.62340278 -.00035182  00000+0 -12748-2 0  2571
2 63323  43.0007  43.8240 0001328 265.0735  64.1365 15.27584364    17

Отслеживайте STARLINK-33607 в реальном времени с AllMySat

Download on the App Store